Flag for Australia Weather past 2 weeks in Broken Hill, New South Wales, Australia

Now
45 °F

Quite cool.


Feels Like: 45 °F
Forecast: 45 / 61 °F
Wind: No wind

Location: Yunta

Current Time: Jul 25, 2014 at 1:03:07 AM

Latest Report: Jul 25, 2014 at 12:00 AM


Visibility: N/A

Pressure: 30.01 "Hg

Humidity: 78%

Dew point: 38 °F

Location of Broken HillLocation

Historic Weather in Broken Hill — Graph

°F

Broken Hill temperature yesterday

Maximum temperature yesterday: 62 °F (at 1:30 PM)
Minimum temperature yesterday: 46 °F (at 3:00 AM)
Average temperature yesterday: 54 °F

Past Weeks' High & Low Weather Summary

 TemperatureHumidityPressure
High66 °F (Jul 22, 3:00 PM)93% (Jul 13, 7:30 AM)30.51 "Hg (Jul 13, 7:30 AM)
Low24 °F (Jul 13, 6:00 AM)24% (Jul 22, 1:30 PM)29.80 "Hg (Jul 24, 4:30 AM)
Average46 °F68%30.18 "Hg
* Reported Jul 9 11:30 PM — Midnight between Jul 24 and Jul 25, Broken Hill, Weather by CustomWeather, © 2014

Note: Actual official high and low records may vary slightly from our data, if they occured in-between our weather recording intervals... More about our weather records

Advertising

Broken Hill weather history for previous 24 hours

 ConditionsComfort  
Time TempWeatherWind HumidityBarometerVisibility
12:00 AM
Jul 25
45 °FQuite cool.No wind78%30.01 "HgN/A
11:30 PM
Jul 24
46 °FCool.1 mph76%30.01 "HgN/A
10:30 PM48 °FCool.2 mph73%30.00 "HgN/A
9:00 PM52 °FCool.8 mph62%29.98 "HgN/A
8:30 PM55 °FRefreshingly cool.14 mph55%29.97 "HgN/A
7:30 PM54 °FCool.8 mph60%29.95 "HgN/A
6:00 PM56 °FCool.5 mph63%29.92 "HgN/A
5:30 PM58 °FRefreshingly cool.6 mph53%29.91 "HgN/A
4:30 PM60 °FRefreshingly cool.14 mph46%29.89 "HgN/A
3:00 PM61 °FRefreshingly cool.15 mph48%29.88 "HgN/A
2:30 PM61 °FRefreshingly cool.16 mph47%29.87 "HgN/A
1:30 PM62 °FRefreshingly cool.15 mph50%29.86 "HgN/A
12:00 PM59 °FRefreshingly cool.17 mph59%29.86 "HgN/A
11:30 AM56 °FCool.15 mph66%29.87 "HgN/A
10:30 AM54 °FCool.14 mph74%29.89 "HgN/A
9:00 AM53 °FCool.13 mph77%29.86 "HgN/A
8:30 AM52 °FCool.16 mph76%29.85 "HgN/A
7:30 AM52 °FCool.17 mph74%29.83 "HgN/A
6:00 AM52 °FCool.14 mph73%29.80 "HgN/A
5:30 AM52 °FCool.15 mph70%29.80 "HgN/A
4:30 AM52 °FCool.12 mph69%29.80 "HgN/A
3:00 AM46 °FCool.9 mph69%29.80 "HgN/A
2:30 AM47 °FCool.9 mph67%29.81 "HgN/A
1:30 AM49 °FCool.9 mph63%29.83 "HgN/A
Weather by CustomWeather, © 2014

See weather overviewHow to use our weather pages